DEDMO EDHL-EDHL

Flight info

Callsign DEDMO
Flight time 0h 4m
Altitude
Route
Aircraft PA28

Departure

Time 2026-04-28 17:52
Airport Lübeck Blankensee Airport (EDHL)

Arrival

Time 2026-04-28 17:56
Airport Lübeck Blankensee Airport (EDHL)
Time Latitude Longitude Altitude Speed Heading
2026-04-28 17:41 53.80548 10.70549 54 ft 0 kts 227°
2026-04-28 17:47 53.80545 10.70529 54 ft 4 kts 301°
2026-04-28 17:47 53.80572 10.70479 54 ft 8 kts 312°
2026-04-28 17:47 53.80601 10.70400 54 ft 9 kts 219°
2026-04-28 17:47 53.80566 10.70351 54 ft 11 kts 226°
2026-04-28 17:48 53.80511 10.70369 54 ft 9 kts 146°
2026-04-28 17:48 53.80436 10.70455 55 ft 8 kts 139°
2026-04-28 17:48 53.80420 10.70473 55 ft 0 kts 147°
2026-04-28 17:50 53.80407 10.70489 55 ft 9 kts 147°
2026-04-28 17:50 53.80316 10.70603 55 ft 11 kts 118°
2026-04-28 17:50 53.80328 10.70820 54 ft 40 kts 71°
2026-04-28 17:51 53.80444 10.71539 71 ft 79 kts 71°
2026-04-28 17:51 53.80570 10.72371 290 ft 75 kts 59°
2026-04-28 17:51 53.80791 10.73159 496 ft 72 kts 54°
2026-04-28 17:51 53.81079 10.73915 598 ft 81 kts 56°
2026-04-28 17:52 53.81340 10.74750 751 ft 81 kts 40°
2026-04-28 17:52 53.81877 10.74546 829 ft 93 kts 325°
2026-04-28 17:52 53.82118 10.72217 904 ft 117 kts 271°
2026-04-28 17:53 53.81923 10.70910 918 ft 116 kts 253°
2026-04-28 17:53 53.81611 10.69695 1000 ft 109 kts 252°
2026-04-28 17:53 53.81300 10.68548 1053 ft 107 kts 251°
2026-04-28 17:53 53.80985 10.67368 1056 ft 110 kts 252°
2026-04-28 17:54 53.80588 10.66287 1072 ft 108 kts 227°
2026-04-28 17:54 53.79941 10.65842 1121 ft 90 kts 168°
2026-04-28 17:54 53.79476 10.66422 998 ft 87 kts 90°
2026-04-28 17:54 53.79627 10.67425 744 ft 88 kts 68°
2026-04-28 17:55 53.79817 10.68354 583 ft 82 kts 64°
2026-04-28 17:55 53.79996 10.69248 421 ft 78 kts 65°
2026-04-28 17:55 53.80176 10.70099 223 ft 78 kts 65°
2026-04-28 17:55 53.80345 10.70950 75 ft 72 kts 65°
2026-04-28 17:56 53.80484 10.71687 53 ft 58 kts 82°
2026-04-28 17:56 53.80662 10.71999 52 ft 21 kts 74°
2026-04-28 17:56 53.80662 10.72029 52 ft 0 kts 139°
2026-04-28 17:57 53.80662 10.72030 52 ft 0 kts 139°
2026-04-28 17:57 53.80659 10.72007 52 ft 7 kts 323°
2026-04-28 17:57 53.80632 10.71929 52 ft 8 kts 233°
2026-04-28 17:57 53.80622 10.71799 52 ft 17 kts 276°
2026-04-28 17:58 53.80662 10.71583 52 ft 17 kts 267°
2026-04-28 17:58 53.80630 10.71401 53 ft 14 kts 252°
2026-04-28 17:58 53.80604 10.71251 53 ft 13 kts 259°
2026-04-28 17:58 53.80567 10.71071 53 ft 18 kts 253°
2026-04-28 17:59 53.80523 10.70843 54 ft 22 kts 252°
2026-04-28 17:59 53.80475 10.70621 54 ft 13 kts 232°
2026-04-28 17:59 53.80456 10.70534 54 ft 5 kts 267°
2026-04-28 17:59 53.80456 10.70425 54 ft 11 kts 320°
2026-04-28 18:00 53.80519 10.70358 54 ft 10 kts 324°
2026-04-28 18:00 53.80579 10.70355 54 ft 9 kts 52°
2026-04-28 18:00 53.80597 10.70435 54 ft 6 kts 123°
2026-04-28 18:00 53.80573 10.70475 54 ft 8 kts 130°
2026-04-28 18:01 53.80543 10.70491 54 ft 1 kts 234°
2026-04-28 18:01 53.80528 10.70485 54 ft 2 kts 43°